Preview of NWS' New Version of Forecast
This preview is not operational and should not be used for support decisions.

Regional Weather Roundup (RWR)

Issued by National Weather Service (NWS)

                            
000
ASUS45 KABQ 200010
RWRNM 
NEW MEXICO REGIONAL WEATHER ROUNDUP
NATIONAL WEATHER SERVICE ALBUQUERQUE NM
600 PM MDT MON AUG 19 2019

NOTE: "FAIR" MEANS FEW OR NO CLOUDS BELOW 12,000 FEET AGL WITH NO
       SIGNIFICANT WEATHER OR OBSTRUCTIONS TO VISION.

      THIS PRODUCT IS RELEASED AS TWO VERSIONS.  ONE VERSION NEAR
      THE TOP OF THE HOUR CONTAINING PRELIMINARY DATA FROM ALBUQUERQUE
      AND OTHER STATIONS.  A FINAL VERSION WITH ADDITIONAL DATA IS 
      ISSUED ABOUT 10 MINUTES AFTER THE HOUR.
 
NMZ501-503-504-510>518-200100-
NORTHWEST PLATEAU/NORTHCENTRAL MOUNTAINS
  
CITY           SKY/WX    TMP DP  RH WIND       PRES   REMARKS
FARMINGTON     FAIR      92  25   9 CALM      30.11F                  
6HR MIN TEMP:  85; 6HR MAX TEMP:  96;                                

LOS ALAMOS       N/A     86  28  12 SW7G16    30.25F                  
SANTA FE       FAIR      91  35  13 W14G20    30.16F                  
6HR MIN TEMP:  88; 6HR MAX TEMP:  94;                                

TAOS             N/A     89  31  12 W13G22    30.24F                  
ANGEL FIRE     PTSUNNY   74  36  25 S9        30.37S                  

$$
NMZ402-403-502-505>509-200100-
WESTCENTRAL MOUNTAINS/SOUTHWEST MOUNTAINS
  
CITY           SKY/WX    TMP DP  RH WIND       PRES   REMARKS
GALLUP         FAIR      91  22   8 SW9       30.20F                  
6HR MIN TEMP:  86; 6HR MAX TEMP:  92;                                

GRANTS         FAIR      87  30  13 CALM      30.20S                  
SILVER CITY    FAIR      93  35  13 W8        30.11S                  

$$
NMZ407-409-411-412-200100-
SOUTHERN DESERTS
  
CITY           SKY/WX    TMP DP  RH WIND       PRES   REMARKS
DEMING         FAIR      97  36  12 SW5       30.02F                  
6HR MIN TEMP:  89; 6HR MAX TEMP:  99;                                

LAS CRUCES     FAIR      98  40  13 E12       30.05S                  
HOLLOMAN AFB   FAIR      92  50  23 CALM      30.05F                  
ALAMOGORDO     FAIR      95  46  18 W8        30.04F                  
T OR C         FAIR      95  42  16 SE14G22   30.06F                  
6HR MIN TEMP:  90; 6HR MAX TEMP:  98;                                


$$
NMZ519>523-200100-
CENTRAL VALLEYS/CENTRAL HIGHLANDS
  
CITY           SKY/WX    TMP DP  RH WIND       PRES   REMARKS
ALBUQUERQUE    FAIR      94  36  13 SW6       30.08F                  
6HR MIN TEMP:  87; 6HR MAX TEMP:  96;                                

DOUBLE EAGLE   MOSUNNY   93  37  14 S10       30.13F                  
MORIARTY ARPT  FAIR      87  40  19 S18       30.19S                  
6HR MIN TEMP:  87; 6HR MAX TEMP:  96;                                

CLINES CORNERS FAIR      85  40  20 SW18G31   30.26F                  
6HR MIN TEMP:  81; 6HR MAX TEMP:  91;                                

BELEN          FAIR      96  32  10 SE8       30.08S                  
6HR MIN TEMP:  89; 6HR MAX TEMP:  97;                                

SOCORRO        FAIR      95  36  12 S14       30.07F                  
6HR MIN TEMP:  91; 6HR MAX TEMP:  97;                                


$$
NMZ524>526-539-540-200100-
SOUTHCENTRAL MOUNTAINS
  
CITY           SKY/WX    TMP DP  RH WIND       PRES   REMARKS
RUIDOSO        LGT RAIN  68  50  52 W8        30.31F                  

$$
NMZ527>531-200100-
NORTHEAST HIGHLANDS/NORTHEAST PLAINS
  
CITY           SKY/WX    TMP DP  RH WIND       PRES   REMARKS
LAS VEGAS      FAIR      82  42  24 S16       30.23S                  
6HR MIN TEMP:  82; 6HR MAX TEMP:  93;                                

RATON          FAIR      89  40  17 S21G26    30.15S                  
6HR MIN TEMP:  87; 6HR MAX TEMP:  94;                                

CLAYTON        FAIR      92  47  21 SW20      30.07S                  
6HR MIN TEMP:  91; 6HR MAX TEMP:  98;                                


$$
NMZ532>537-200100-
EASTCENTRAL PLAINS
  
CITY           SKY/WX    TMP DP  RH WIND       PRES   REMARKS
TUCUMCARI      PTSUNNY   93  49  22 S12       30.01S                  
6HR MIN TEMP:  89; 6HR MAX TEMP: 101;                                

CANNON AFB     CLOUDY    91  48  22 S3        30.10S                  
6HR MIN TEMP:  85; 6HR MAX TEMP:  93; 6HR PCP: TRACE;                

CLOVIS AIRPORT FAIR      88  52  29 SE8       30.11R                  

$$
NMZ028-029-538-200100-
SOUTHEAST PLAINS
  
CITY           SKY/WX    TMP DP  RH WIND       PRES   REMARKS
ROSWELL        FAIR      95  50  21 E13       30.01S                  
6HR MIN TEMP:  89; 6HR MAX TEMP: 101;                                

ARTESIA        FAIR      97  54  23 E8        29.99S                  
CARLSBAD       FAIR     100  48  17 SE9       29.93S HX  96           
6HR MIN TEMP:  93; 6HR MAX TEMP: 103;                                

HOBBS          SUNNY    100  41  13 SE16G22   30.00F HX  96           


$$